{"data":{"norad_id":61635,"intl_designator":"2024-191Q","name":"STARLINK-32370","alt_names":[],"object_type":"PAYLOAD","status":"ACTIVE","operator":null,"country":"US","launch_date":"2024-10-23","launch_site_code":"AFETR","launch_vehicle":null,"mission":null,"orbit_class":"UNKNOWN","rcs_meters":null,"size_class":null,"mass_kg":null,"dimensions":null,"purposes":["comms"],"wikipedia_slug":null,"has_3d_model":false,"image_url":null,"decayed_at":null,"tle_current":{"epoch":"2026-05-24T22:53:45.321792Z","epoch_age_seconds":75691,"freshness":"FRESH","line1":"1 61635U 24191Q   26144.95399678 -.00000248  00000+0  52471-6 0  9990","line2":"2 61635  43.0036  83.4891 0001285 262.2098  97.8608 15.27574426 89207","mean_motion":15.27574426,"eccentricity":0.0001285,"inclination_deg":43.0036,"raan_deg":83.4891,"arg_perigee_deg":262.2098,"mean_anomaly_deg":97.8608,"bstar":5.2471e-7,"rev_number":8920,"period_min":94.267092685669,"perigee_km":482.18412209356,"apogee_km":483.94745120973,"semimajor_km":6861.2027866516,"source":"CELESTRAK","updated_at":"2026-05-25T13:38:19.409523Z"}}}